G1CAE-13 Weather Reports


Display with metric or nautical units.
time (UTC)temp
F
wind
direction
speed
MPH
gust
MPH
rain 1hr
in
rain 24hr
in
rain mn
in
humidity
%
barometer
mb
20260507220003 51 306 0.0 3.0 0.00 0.00 0.00 73 1013.5
20260507215618 51 290 0.0 3.0 0.00 0.00 0.00 72 1013.4
20260507214718 51 252 1.0 3.0 0.00 0.00 0.00 72 1013.5
20260507213603 51 328 0.0 2.0 0.00 0.00 0.00 72 1013.5
20260507212703 51 345 0.0 2.0 0.00 0.00 0.00 71 1013.3
20260507211803 51 31 0.0 2.0 0.00 0.00 0.00 70 1013.3
20260507210903 51 290 0.0 1.0 0.00 0.00 0.00 69 1013.3
20260507210003 51 315 1.0 2.0 0.00 0.00 0.00 69 1013.2
20260507205403 51 341 0.0 2.0 0.00 0.00 0.00 69 1013.6
20260507204504 52 309 0.0 1.0 0.00 0.00 0.00 69 1013.2
20260507203603 52 309 0.0 1.0 0.00 0.00 0.00 68 1013.3
20260507202703 52 313 0.0 2.0 0.00 0.00 0.00 67 1013.2
20260507201803 52 315 0.0 1.0 0.00 0.00 0.00 67 1013.2
20260507200903 52 312 0.0 1.0 0.00 0.00 0.00 66 1013.0
20260507200003 53 314 0.0 2.0 0.00 0.00 0.00 65 1012.9
20260507195403 53 298 1.0 2.0 0.00 0.00 0.00 65 1013.0
20260507194503 53 300 1.0 3.0 0.00 0.00 0.00 64 1013.1
20260507193603 53 302 1.0 2.0 0.00 0.00 0.00 64 1012.8
20260507192703 53 301 0.0 2.0 0.00 0.00 0.00 64 1012.7
20260507192017 53 318 0.0 2.0 0.00 0.00 0.00 64 1013.0
20260507190903 53 314 0.0 2.0 0.00 0.00 0.00 63 1012.8
20260507190004 53 305 0.0 1.0 0.00 0.00 0.00 62 1012.9
20260507185403 54 300 0.0 2.0 0.00 0.00 0.00 61 1012.7
20260507184504 54 288 0.0 2.0 0.00 0.00 0.00 61 1012.8
20260507183603 54 293 1.0 2.0 0.00 0.00 0.00 60 1012.7
20260507182703 54 309 1.0 6.0 0.00 0.00 0.00 59 1012.6
20260507181803 55 299 1.0 4.0 0.00 0.00 0.00 58 1012.7
20260507180903 56 304 2.0 4.0 0.00 0.00 0.00 57 1012.5
20260507180004 56 305 2.0 7.0 0.00 0.00 0.00 57 1012.5
20260507175403 56 309 2.0 7.0 0.00 0.00 0.00 57 1012.7
20260507174718 57 308 2.0 6.0 0.00 0.00 0.00 59 1012.6
20260507173603 56 292 1.0 7.0 0.00 0.00 0.00 59 1012.5
20260507172703 56 298 2.0 6.0 0.00 0.00 0.00 59 1012.7
20260507172018 56 292 2.0 6.0 0.00 0.00 0.00 60 1012.8
20260507170903 57 283 2.0 4.0 0.00 0.00 0.00 60 1012.8
20260507170003 57 281 2.0 4.0 0.00 0.00 0.00 59 1012.9
20260507165403 56 279 2.0 6.0 0.00 0.00 0.00 61 1013.0
20260507164503 57 280 2.0 6.0 0.00 0.00 0.00 60 1013.1
20260507163603 57 281 3.0 6.0 0.00 0.00 0.00 60 1012.6
20260507162703 57 293 2.0 6.0 0.00 0.00 0.00 60 1012.9
20260507161803 56 298 2.0 4.0 0.00 0.00 0.00 61 1013.0
20260507160903 55 286 2.0 7.0 0.00 0.00 0.00 63 1012.9
20260507160003 56 295 1.0 6.0 0.00 0.00 0.00 62 1012.9
20260507155403 56 296 1.0 4.0 0.00 0.00 0.00 62 1013.0
20260507154718 56 293 1.0 6.0 0.00 0.00 0.00 61 1012.9
20260507153817 56 305 2.0 6.0 0.00 0.00 0.00 61 1012.8
20260507152703 56 294 2.0 6.0 0.00 0.00 0.00 61 1013.3
20260507151803 56 289 2.0 9.0 0.00 0.00 0.00 59 1012.9
20260507150903 56 306 2.0 7.0 0.00 0.00 0.00 60 1013.2
20260507150004 56 297 2.0 6.0 0.00 0.00 0.00 61 1013.2
20260507145618 56 300 2.0 6.0 0.00 0.00 0.00 62 1013.3
20260507144503 55 304 1.0 3.0 0.00 0.00 0.00 63 1013.1
20260507143603 54 297 1.0 4.0 0.00 0.00 0.00 66 1013.2
20260507142703 53 291 2.0 3.0 0.00 0.00 0.00 70 1013.4
20260507141803 53 294 1.0 3.0 0.00 0.00 0.00 70 1013.5
20260507141117 53 298 2.0 3.0 0.00 0.00 0.00 68 1013.5
20260507140004 53 287 1.0 3.0 0.00 0.00 0.00 65 1013.7
20260507135618 53 291 1.0 4.0 0.00 0.00 0.00 66 1013.7
20260507134503 53 302 1.0 3.0 0.00 0.00 0.00 68 1013.7
20260507133603 53 301 1.0 3.0 0.00 0.00 0.00 67 1013.7
20260507132917 53 296 1.0 3.0 0.00 0.00 0.00 66 1013.9
20260507131803 54 292 1.0 3.0 0.00 0.00 0.00 66 1013.8
20260507131118 54 294 1.0 3.0 0.00 0.00 0.00 66 1014.0
20260507130218 54 293 1.0 4.0 0.00 0.00 0.00 64 1014.1
20260507125403 54 289 2.0 4.0 0.00 0.00 0.00 62 1014.0
20260507124503 54 292 2.0 4.0 0.00 0.00 0.00 63 1014.0
20260507123603 54 296 2.0 7.0 0.00 0.00 0.00 59 1013.8
20260507122705 55 292 2.0 6.0 0.00 0.00 0.00 56 1014.0
20260507122018 56 285 3.0 7.0 0.00 0.00 0.00 54 1013.8
20260507120903 56 296 2.0 6.0 0.00 0.00 0.00 55 1013.5
20260507120004 56 291 2.0 6.0 0.00 0.00 0.00 54 1013.6
20260507115403 56 275 3.0 7.0 0.00 0.00 0.00 56 1013.8
20260507114503 56 286 3.0 7.0 0.00 0.00 0.00 54 1013.7
20260507113817 57 298 2.0 7.0 0.00 0.00 0.00 54 1013.8
20260507112703 57 301 2.0 6.0 0.00 0.00 0.00 55 1013.8
20260507111803 57 278 2.0 8.0 0.00 0.00 0.00 56 1013.6
20260507110903 56 300 3.0 8.0 0.00 0.00 0.00 57 1013.7
20260507110217 55 309 3.0 8.0 0.00 0.00 0.00 56 1013.9
20260507105403 56 281 2.0 9.0 0.00 0.00 0.00 58 1013.8
20260507104504 55 284 2.0 9.0 0.00 0.00 0.00 59 1013.8
20260507103817 54 287 2.0 7.0 0.00 0.00 0.00 61 1014.0
20260507102703 54 296 3.0 6.0 0.00 0.00 0.00 61 1014.0
20260507101803 55 303 1.0 6.0 0.00 0.00 0.00 60 1013.9
20260507100903 55 303 2.0 7.0 0.00 0.00 0.00 60 1013.8
20260507100003 54 284 1.0 3.0 0.00 0.00 0.00 60 1013.8
20260507095403 53 289 2.0 4.0 0.00 0.00 0.00 62 1014.1
20260507094503 52 292 1.0 6.0 0.00 0.00 0.00 61 1013.9
20260507093603 52 275 1.0 6.0 0.00 0.00 0.00 62 1013.9
20260507092703 52 284 1.0 2.0 0.00 0.00 0.00 63 1013.9
20260507091803 52 321 1.0 2.0 0.00 0.00 0.00 63 1013.7
20260507090903 51 302 1.0 4.0 0.00 0.00 0.00 63 1013.7
20260507090004 51 298 1.0 6.0 0.00 0.00 0.00 64 1013.7
20260507085403 51 301 1.0 6.0 0.00 0.00 0.00 64 1013.8
20260507084503 51 297 1.0 7.0 0.00 0.00 0.00 64 1013.9
20260507083603 50 291 2.0 7.0 0.00 0.00 0.00 64 1013.7
20260507082703 50 306 2.0 6.0 0.00 0.00 0.00 65 1013.7
20260507081803 50 305 2.0 6.0 0.00 0.00 0.00 66 1013.5
20260507081118 50 304 2.0 6.0 0.00 0.00 0.00 66 1013.5
20260507080004 50 300 2.0 4.0 0.00 0.00 0.00 66 1013.3
20260507075403 50 304 1.0 3.0 0.00 0.00 0.00 66 1013.5
20260507074503 50 287 1.0 3.0 0.00 0.00 0.00 64 1013.4
20260507073603 50 306 1.0 3.0 0.00 0.00 0.00 64 1013.3
20260507072917 51 6 0.0 2.0 0.00 0.00 0.00 64 1013.4
20260507071803 51 46 1.0 3.0 0.00 0.00 0.00 65 1013.3
20260507071118 51 22 1.0 3.0 0.00 0.00 0.00 65 1013.3
20260507070006 51 47 1.0 3.0 0.00 0.00 0.00 65 1013.4
20260507065403 51 12 1.0 3.0 0.00 0.00 0.00 66 1013.3
20260507064503 51 18 1.0 4.0 0.00 0.00 0.00 66 1013.3
20260507063603 49 337 1.0 4.0 0.00 0.00 0.00 68 1013.4
20260507062703 49 316 1.0 4.0 0.00 0.00 0.00 69 1013.3
20260507062018 49 330 1.0 4.0 0.00 0.00 0.00 69 1013.4
20260507060903 49 10 1.0 6.0 0.00 0.00 0.00 69 1013.3
20260507060003 48 338 1.0 3.0 0.00 0.00 0.00 69 1013.4
20260507055403 48 335 1.0 3.0 0.00 0.00 0.00 69 1013.5
20260507054503 47 290 0.0 3.0 0.00 0.00 0.00 70 1013.4
20260507053603 47 25 1.0 4.0 0.00 0.00 0.00 70 1013.3
20260507052703 47 3 1.0 3.0 0.00 0.00 0.00 71 1013.3
20260507051803 46 337 1.0 6.0 0.00 0.00 0.00 71 1013.2
20260507051117 46 336 1.0 3.0 0.00 0.00 0.00 72 1013.2
20260507050003 45 346 1.0 3.0 0.00 0.00 0.00 73 1013.3
20260507045403 44 325 1.0 4.0 0.00 0.00 0.00 73 1013.2
20260507044503 44 323 1.0 4.0 0.00 0.00 0.00 74 1013.2
20260507043817 44 330 1.0 3.0 0.00 0.00 0.00 74 1013.2
20260507042703 44 359 1.0 4.0 0.00 0.00 0.00 73 1013.2
20260507041803 44 320 1.0 3.0 0.00 0.00 0.00 74 1013.0
20260507040903 44 345 1.0 2.0 0.00 0.00 0.00 73 1013.0
20260507040004 44 317 1.0 2.0 0.00 0.00 0.00 73 1013.3
20260507035403 44 332 0.0 2.0 0.00 0.00 0.00 73 1013.3
20260507034503 44 349 0.0 2.0 0.00 0.00 0.00 73 1013.4
20260507033603 44 338 0.0 2.0 0.00 0.00 0.00 73 1013.3
20260507032703 44 4 0.0 2.0 0.00 0.00 0.00 73 1013.3
20260507031803 44 349 0.0 1.0 0.00 0.00 0.00 72 1013.2
20260507030903 44 337 0.0 2.0 0.00 0.00 0.00 72 1013.5
20260507030003 45 312 1.0 2.0 0.00 0.00 0.00 71 1013.6
20260507025403 45 301 1.0 3.0 0.00 0.00 0.00 71 1013.5
20260507024717 45 299 1.0 4.0 0.00 0.00 0.00 71 1013.7
20260507023603 45 314 0.0 2.0 0.00 0.00 0.00 71 1013.5
20260507022703 45 351 0.0 2.0 0.00 0.00 0.00 71 1013.6
20260507021803 46 318 0.0 2.0 0.00 0.00 0.00 70 1013.4
20260507020903 46 337 1.0 2.0 0.00 0.00 0.00 69 1013.7
20260507020003 46 321 1.0 4.0 0.00 0.00 0.00 69 1013.5
20260507015403 46 307 1.0 2.0 0.00 0.00 0.00 69 1013.6
20260507014503 46 328 1.0 2.0 0.00 0.00 0.00 69 1013.7
20260507013818 46 298 1.0 3.0 0.00 0.00 0.00 68 1013.7
20260507012703 46 312 1.0 3.0 0.00 0.00 0.00 68 1013.8
20260507012018 46 326 0.0 3.0 0.00 0.00 0.00 68 1013.4
20260507011118 46 329 0.0 3.0 0.00 0.00 0.00 68 1013.6
20260507010004 46 312 0.0 2.0 0.00 0.00 0.00 67 1013.6
20260507005403 45 354 0.0 2.0 0.00 0.00 0.00 68 1013.6
20260507004503 43 67 0.0 1.0 0.00 0.00 0.00 72 1013.7
20260507003603 43 67 0.0 2.0 0.00 0.00 0.00 71 1013.8
20260507002703 44 67 0.0 1.0 0.00 0.00 0.00 71 1013.7
20260507001803 43 67 0.0 1.0 0.00 0.00 0.00 72 1013.8
20260507000903 43 67 0.0 1.0 0.00 0.00 0.00 75 1013.8
20260507000004 43 0 0.0 0.0 0.00 0.00 0.00 75 1014.0
20260506235618 43 67 0.0 1.0 0.00 0.00 0.00 74 1013.9
20260506234503 43 67 0.0 1.0 0.00 0.00 0.00 74 1013.9
20260506233603 43 76 0.0 2.0 0.00 0.00 0.00 76 1014.1
20260506232918 43 82 0.0 1.0 0.00 0.00 0.00 77 1014.1
20260506231803 42 71 1.0 2.0 0.00 0.00 0.00 78 1013.9
20260506230903 42 71 1.0 2.0 0.00 0.00 0.00 78 1013.9
20260506230218 42 71 0.0 2.0 0.00 0.00 0.00 78 1013.9
20260506225403 42 71 0.0 1.0 0.00 0.00 0.00 78 1014.1
20260506224503 42 67 0.0 2.0 0.00 0.00 0.00 78 1013.9
20260506223817 41 62 0.0 2.0 0.00 0.00 0.00 79 1014.2
20260506222918 41 63 1.0 2.0 0.00 0.00 0.00 79 1014.0
20260506221803 41 62 0.0 2.0 0.00 0.00 0.00 80 1014.0
20260506220903 42 62 0.0 1.0 0.00 0.00 0.00 79 1014.1